Hourly Data Report for August 24, 2020

ALGONQUIN PARK EAST GATE
ONTARIO
Current Station Operator: ECCC - MSC

45°32'00.000" N
78°16'00.000" W
397.00 m
6080192
71581
TNK

Download Data

Hourly Data (August 2020)
Hourly Data Report for August 24, 2020
TIME
LST
Temp Definition
°C
Dew Point Definition
°C
Rel Hum Definition
%
Precip. Amount Definition
mm

Wind Dir Definition
10's deg

Wind Spd Definition
km/h
Visibility Definition
km
Stn Press Definition
kPa
Hmdx Definition


Wind Chill Definition


Weather Definition


00:00 18.3 17.1 93 0.0 29 2   96.88     LegendNANA
01:00 17.9 16.8 93 0.0   0   96.85     LegendNANA
02:00 17.7 16.6 93 0.0 0 1   96.80     LegendNANA
03:00 17.6 16.4 93 0.0   0   96.79     LegendNANA
04:00 17.0 15.9 93 0.0   0   96.77     LegendNANA
05:00 16.3 15.2 93 0.0   0   96.75     LegendNANA
06:00 16.5 15.5 94 0.0   0   96.78     LegendNANA
07:00 18.1 17.1 94 0.0   0   96.78     LegendNANA
08:00 19.5 18.0 91 0.0 28 2   96.79     LegendNANA
09:00 20.8 18.6 87 0.0 25 4   96.81 27   LegendNANA
10:00 22.2 18.4 79 0.0 28 4   96.79 29   LegendNANA
11:00 23.7 18.0 71 0.0 24 6   96.75 30   LegendNANA
12:00 24.4 17.7 66 0.0 26 6   96.71 30   LegendNANA
13:00 25.2 17.7 63 0.0 25 8   96.65 31   LegendNANA
14:00 27.1 17.2 55 0.0 25 7   96.55 33   LegendNANA
15:00 25.5 17.9 63 0.0 26 4   96.53 31   LegendNANA
16:00 26.2 17.2 58 0.0 25 5   96.47 32   LegendNANA
17:00 25.2 17.4 62 0.0 26 5   96.42 31   LegendNANA
18:00 23.6 18.3 72 0.0 26 4   96.41 30   LegendNANA
19:00 21.1 18.1 83 0.0   0   96.41 27   LegendNANA
20:00 20.2 17.9 86 0.0   0   96.42 26   LegendNANA
21:00 19.8 17.7 88 0.0   0   96.41     LegendNANA
22:00 18.9 17.2 90 0.0   0   96.31     LegendNANA
23:00 19.3 17.8 91 3.3 18 2   96.33     LegendNANA

Notes on Data Quality.

Legend

  • E = Estimated
  • M = Missing
  • NA = Not Available*
  • [empty] = Indicates an unobserved value
Date modified: